Regional Weather Roundup
Issued by NWS

Home | Current Version | Previous Version | Graphics & Text | Print | Product List | Glossary Off
Versions: 1 2 3 4 5 6 7 8 9 10 11 12 13 14 15 16 17 18 19 20 21 22 23 24 25 26 27 28 29 30 31 32 33 34 35 36 37 38 39 40 41 42 43 44 45 46 47 48 49 50

000
ASUS43 KDMX 120506
RWRIA

WEATHER ROUNDUP FOR IOWA
NATIONAL WEATHER SERVICE DES MOINES IA
1100 PM CST MON DEC 11 2017

NOTE: "FAIR" INDICATES FEW OR NO CLOUDS BELOW 12,000 FEET WITH NO
SIGNIFICANT WEATHER AND/OR OBSTRUCTIONS TO VISIBILITY.

* - THESE STATIONS ARE NOT NWS STATIONS...THUS NOT UNDER NWS
QUALITY CONTROL.  THEY ALSO DO NOT REPORT WEATHER SUCH
AS PRECIPITATION OR FOG.

IAZ001>003-012>014-020>022-031>034-043>046-120600-
   NORTHWEST IOWA

CITY           SKY/WX    TMP DP  RH WIND       PRES   REMARKS
CARROLL *      CLEAR     19  14  79 N16G24    30.27R WCI   5
CHEROKEE *     CLEAR     19  13  80 N10       30.33R WCI   7
DENISON *      CLEAR     21  14  73 N14       30.32R WCI   8
LE MARS *      CLEAR     19  14  79 N12       30.35R WCI   7
ORANGE CITY *  CLEAR     19  16  86 N12       30.32R WCI   7
SHELDON *      CLEAR     16  12  86 N13       30.31R WCI   2
SIOUX CITY     CLEAR     22  15  75 N15       30.36R WCI   9
SPENCER        CLEAR     16   9  74 NW13      30.29R WCI   2
STORM LAKE *   CLEAR     18  10  73 N17G24    30.28R WCI   2
$$

IAZ055>058-069>071-079>083-090>094-120600-
   SOUTHWEST IOWA

CITY           SKY/WX    TMP DP  RH WIND       PRES   REMARKS
ATLANTIC *     CLEAR     25  18  74 N12G23    30.28R WCI  14
AUDUBON *      CLEAR     21  16  79 N20       30.27R WCI   6
CLARINDA *       N/A     28  23  80 N16G23    30.29  WCI  17
COUNCIL BLFS * CLEAR     27  21  80 NW18G25   30.30R WCI  13
CRESTON *      MOCLDY    25  18  74 N20G29    30.25R WCI  11
HARLAN  *      CLEAR     23  18  80 N17       30.32R WCI   9
LAMONI         PTCLDY    26  17  68 N16       30.21R WCI  14
RED OAK *      CLEAR     27  21  80 N15       30.29R WCI  15
SHENANDOAH *   CLEAR     28  23  80 N9        30.30R WCI  20
$$

IAZ047>049-059>061-072>074-084-120600-
   CENTRAL IOWA

CITY           SKY/WX    TMP DP  RH WIND       PRES   REMARKS
AMES           CLOUDY    23  16  74 N22       30.22R WCI   8
ANKENY *       CLOUDY    23  14  68 NW22G29   30.25R WCI   8
BOONE *        CLOUDY    21  14  73 NW22G31   30.21F WCI   5
CHARITON *     CLOUDY    27  18  69 NW18      30.20R WCI  13
DES MOINES     CLOUDY    26  16  65 N15       30.23R WCI  14
GRINNELL*      CLOUDY    28  20  73 NW18G28   30.17R WCI  15
KNOXVILLE *    CLOUDY    27  16  63 NW22G33   30.19R WCI  12
MARSHALLTOWN   CLOUDY    26  19  74 NW17      30.16R WCI  13
NEWTON *       CLOUDY    27  18  69 NW22G30   30.19R WCI  12
PELLA *        MOCLDY    28  18  66 NW22G31   30.20R WCI  14
PERRY *          N/A     20  13  73 NW17G25   30.26S WCI   6
$$

IAZ004>006-015-016-023>025-035-036-120600-
   NORTH CENTRAL IOWA

CITY           SKY/WX    TMP DP  RH WIND       PRES   REMARKS
ALGONA *       CLEAR     16  14  93 NW17      30.24R WCI   0
CLARION *      CLOUDY    19  16  86 NW25      30.23R WCI   2
ESTHERVILLE    CLEAR     14   9  80 NW23      30.26R WCI  -5
FORT DODGE *   CLEAR     17  12  80 VRB7      30.26R WCI   8
MASON CITY     CLEAR     19  13  77 NW18      30.20R WCI   4
FOREST CITY *    N/A     19  16  86 NW17G24   30.21R WCI   4
WEBSTER CITY * CLOUDY    21  14  73 NW23G32   30.21R WCI   5
IOWA FALLS *   CLOUDY    25  18  72 NW22G28   30.19R WCI  11
$$

IAZ007>011-017>019-026>030-037>042-050>054-066-120600-
   NORTHEAST IOWA

CITY           SKY/WX    TMP DP  RH WIND       PRES   REMARKS
CEDAR RAPIDS   CLOUDY    29  19  66 NW23G31   30.09R WCI  15
CHARLES CITY * CLEAR     21  14  73 NW17G24   30.15R WCI   7
CLINTON *      CLOUDY    31  25  78 NW21      30.01R WCI  18
DECORAH *      CLEAR     21  12  68 N14G24    30.09R WCI   8
DUBUQUE        CLOUDY    26  17  68 NW29G36   30.03R WCI  10
MONTICELLO *   MOCLDY    27  16  63 NW23G35   30.07R WCI  12
OELWEIN *      CLEAR     23  16  74 N21G31    30.12R WCI   8
WATERLOO       CLEAR     24  13  62 NW23G32   30.15R WCI   9
$$

IAZ064-065-067-068-078-120600-
   EAST CENTRAL IOWA

CITY           SKY/WX    TMP DP  RH WIND       PRES   REMARKS
DAVENPORT      CLOUDY    32  23  69 N18       30.05R WCI  20
IOWA CITY      CLOUDY    33  20  58 NW20G40   30.11R WCI  21
MT. PLEASANT * CLOUDY    33  22  64 NW18G26   30.10R WCI  21
MUSCATINE *    CLOUDY    34  21  60 N24       30.09R WCI  21
QUAD CITIES    CLOUDY    34  22  61 NW15G31   30.03R WCI  24
$$

IAZ062-063-075>077-085>089-095>099-120600-
   SOUTHEAST IOWA

CITY           SKY/WX    TMP DP  RH WIND       PRES   REMARKS
BURLINGTON     CLOUDY    35  26  69 NW15G26   30.07R WCI  25
FAIRFIELD *    CLOUDY    32  23  69 NW18G26   30.11R WCI  20
FORT MADISON * CLOUDY    36  27  69 NW23G29   30.08R WCI  24
KEOKUK *       CLOUDY    36  25  64 N18G30    30.08S WCI  25
OSKALOOSA *    CLOUDY    29  20  70 NW22G30   30.16R WCI  15
OTTUMWA        CLOUDY    31  20  63 NW25G33   30.15R WCI  17
WASHINGTON *   PTCLDY    30  21  69 NW26G38   30.12R WCI  16
$$

ABBREVIATIONS USED IN REMARKS
   TC - TEMPERATURES IN CELSIUS
  WCI - WIND CHILL INDEX
   HX - HEAT INDEX
  VSB - VISIBILITY
$$





USA.gov is the U.S. government's official web portal to all federal, state and local government web resources and services.